Hourly Data Report for January 20, 2002

SHERBROOKE A
QUEBEC

45°26'00.000" N
71°41'00.000" W
241.40 m
7028124
71610
YSC

Download Data

Hourly Data (January 2002)
Hourly Data Report for January 20, 2002
TIME
LST
Temp Definition
°C
Dew Point Definition
°C
Rel Hum Definition
%
Precip. Amount Definition
mm

Wind Dir Definition
10's deg

Wind Spd Definition
km/h
Visibility Definition
km
Stn Press Definition
kPa
Hmdx Definition


Wind Chill Definition


Weather Definition


00:00 -11.8 -13.8 85   9 4 15.0 98.18   -14  
01:00 -13.5 -15.2 87   7 4 11.3 98.12   -16  
02:00 -13.4 -15.0 88   7 4 11.3 98.13   -16  
03:00 -12.8 -14.4 88   7 6 15.0 98.12   -17  
04:00 -15.4 -17.3 85   8 4 9.7 98.12   -18  
05:00 -13.5 -14.8 90   10 4 15.0 98.14   -16  
06:00 -16.9 -18.7 86   8 6 15.0 98.15   -21  
07:00 -13.9 -15.4 88     0 15.0 98.21      
08:00 -13.1 -14.5 89     0 24.1 98.25     Mostly Cloudy
09:00 -10.9 -12.1 91   3 4 4.8 98.25   -13 Snow
10:00 -7.9 -8.6 95     0 19.3 98.24     Snow Showers
11:00 -4.3 -8.0 75   22 19 19.3 98.25   -10 Snow Showers
12:00 -3.2 -7.5 72   22 19 19.3 98.16   -9 Mostly Cloudy
13:00 -2.8 -6.6 75   24 15 16.1 98.15   -8 Snow Showers
14:00 -2.9 -5.8 80   23 17 2.4 98.20   -8 Snow Showers
15:00 -3.0 -5.7 82   22 15 2.4 98.31   -8 Snow Showers
16:00 -2.8 -5.8 80   21 13 16.1 98.38   -7 Snow Showers
17:00 -2.8 -5.7 80   21 11 16.1 98.41   -7 Snow Showers
18:00 -2.8 -5.5 82   22 13 15.0 98.50   -7  
19:00 -2.6 -5.1 83   22 7 6.4 98.56   -5 Snow
20:00 -3.0 -5.8 81   23 11 15.0 98.58   -7  
21:00 -2.9 -5.7 81   21 6 15.0 98.61   -5  
22:00 -2.6 -5.6 80   20 6 9.7 98.64   -5 Snow
23:00 -2.7 -5.6 80   20 6 6.4 98.65   -5 Snow

Notes on Data Quality.

Legend

  • E = Estimated
  • M = Missing
  • NA = Not Available*
  • [empty] = Indicates an unobserved value
Date modified: